Weather in Ulyanovo

Russia / Kaliningrad Oblast     54°49′37″N   22°05′22″E
temp.,
°C
wind,
m/s
gust,
m/s
humid.,
%
clouds,
%
prec.,
mm/h
press.,
hPa
HPBL,
m
26 june, sun
sun2623:00+20se338699 0.0 101829
02:00+18ese348910 0.0 101845
05:00+18ese35905 0.0 101986
08:00+22ese34781 0.0 1020285
11:00+26se45670 0.0 1020935
14:00+28se355718 0.0 10201783
17:00+24se227650 0.0 102027
20:00+23ese35820 0.1 102075
27 june, mon
mon2723:00+20se358318 0.0 102179
02:00+18se348132 0.0 102151
05:00+20ese348099 0.0 102180
08:00+22ese3681100 0.0 1021243
11:00+25se367175 0.0 1022517
14:00+28se365811 0.0 10211754
17:00+26se2474100 0.4 1020232
20:00+23se338197 0.9 102037
28 june, tue
tue2823:00+20se478785 0.0 1020114
02:00+18se37887 0.0 1020106
05:00+18se388989 0.0 1020147
08:00+23sse487942 0.0 1020299
11:00+26sse576677 0.0 1020819
14:00+28sse47572 0.6 10191798
17:00+28sse34660 0.1 10181002
20:00+20wnw589633 1.1 1019216
29 june, wed
wed2923:00+17nnw2297100 1.2 102027
02:00+17nw239883 2.8 102070
05:00+17wnw119736 0.1 101917
08:00+21nnw228933 0.1 1019301
11:00+25ese127458 0.0 1019657
14:00+28se12649 2.6 1018994
17:00+28ene226651 0.0 1017826
20:00+23e3685100 0.8 101785
30 june, thu
thu3023:00+20ese349147 0.0 101761
02:00+18ese3586100 0.0 101781
05:00+19ese2390100 0.0 101743
08:00+23e348198 0.0 1017233
11:00+27e4572100 0.0 1016602
14:00+28e4569100 1.1 1016998
17:00+29e347196 0.1 1015723
20:00+24e510857 0.3 1015213